User: anonymous   Login
Location: Unspecified
(0.0000°N, 0.0000°E)
Time: 23:43:37
(UTC+00:00)
Language:

Kosmos-2184 - Orbit

View from above orbital plane
View from above orbital plane
View from above satellite
View from above satellite

Ground track
Ground track

The orbit data is extracted from the following two-line orbital elements,

1 21937U 92020A   21023.57710119  .00000016  00000-0  10001-5 0  9998
2 21937  82.9342 132.7779 0032438 230.9809 139.7365 13.73174090441872
Epoch (UTC): 23 January 2021 13:51:01
Eccentricity: 0.0032438
inclination: 82.9342°
perigee height: 964 km
apogee height: 1012 km
right ascension of ascending node: 132.7779°
argument of perigee: 230.9809°
revolutions per day: 13.73174090
mean anomaly at epoch: 139.7365°
orbit number at epoch: 44187

The dashed part of the orbit path shows where the satellite is in the earth's shadow,  

DLR